| time (UTC) | temp C | wind direction | speed KPH | gust KPH | rain 1hr cm | rain 24hr cm | rain mn cm | humidity % | barometer mb |
| 20260505210105 | 10 | 342 | 4.8 | 14.5 | 0.00 | 0.00 | 0.00 | 3 | 1011.3 |
| 20260505200604 | 10 | 325 | 3.2 | 4.8 | 0.00 | 0.00 | 0.00 | 3 | 1011.0 |
| 20260505200105 | 10 | 16 | 1.6 | 14.5 | 0.00 | 0.00 | 0.00 | 3 | 1011.0 |
| 20260505190604 | 10 | 355 | 1.6 | 9.7 | 0.00 | 0.00 | 0.00 | 3 | 1010.7 |
| 20260505190105 | 10 | 344 | 3.2 | 16.1 | 0.00 | 0.00 | 0.00 | 3 | 1010.7 |
| 20260505180604 | 10 | 325 | 8.0 | 14.5 | 0.00 | 0.00 | 0.00 | 3 | 1010.3 |
| 20260505180108 | 10 | 330 | 4.8 | 19.3 | 0.00 | 0.00 | 0.00 | 3 | 1010.3 |
| 20260505170604 | 10 | 328 | 9.7 | 19.3 | 0.00 | 0.00 | 0.00 | 3 | 1010.5 |
| 20260505170106 | 10 | 318 | 11.3 | 22.5 | 0.00 | 0.00 | 0.00 | 3 | 1010.4 |
| 20260505160604 | 10 | 327 | 6.4 | 19.3 | 0.00 | 0.05 | 0.00 | 3 | 1010.5 |
| 20260505160105 | 10 | 310 | 9.7 | 20.9 | 0.00 | 0.05 | 0.00 | 3 | 1010.5 |
| 20260505150603 | 10 | 330 | 8.0 | 19.3 | 0.00 | 0.05 | 0.00 | 3 | 1010.6 |
| 20260505150105 | 10 | 325 | 9.7 | 24.1 | 0.00 | 0.05 | 0.00 | 3 | 1010.7 |
| 20260505140604 | 10 | 332 | 6.4 | 22.5 | 0.00 | 0.05 | 0.00 | 3 | 1010.9 |
| 20260505130106 | 10 | 336 | 4.8 | 22.5 | 0.00 | 0.05 | 0.00 | 3 | 1011.2 |
| 20260505120604 | 10 | 342 | 9.7 | 20.9 | 0.00 | 0.05 | 0.00 | 3 | 1011.3 |
| 20260505120105 | 10 | 332 | 8.0 | 19.3 | 0.00 | 0.05 | 0.00 | 3 | 1011.3 |
| 20260505110604 | 10 | 331 | 4.8 | 16.1 | 0.00 | 0.05 | 0.00 | 3 | 1011.4 |
| 20260505110105 | 10 | 307 | 3.2 | 19.3 | 0.00 | 0.05 | 0.00 | 3 | 1011.5 |
| 20260505100605 | 10 | 333 | 4.8 | 12.9 | 0.00 | 0.05 | 0.00 | 3 | 1011.9 |
| 20260505100106 | 10 | 337 | 1.6 | 12.9 | 0.00 | 0.05 | 0.00 | 3 | 1011.9 |
| 20260505090603 | 10 | 356 | 3.2 | 11.3 | 0.00 | 0.05 | 0.00 | 3 | 1012.0 |
| 20260505090104 | 10 | 43 | 3.2 | 16.1 | 0.00 | 0.05 | 0.00 | 3 | 1011.9 |
| 20260505080603 | 10 | 334 | 3.2 | 4.8 | 0.00 | 0.05 | 0.00 | 3 | 1012.3 |
| 20260505080110 | 10 | 22 | 4.8 | 19.3 | 0.00 | 0.05 | 0.00 | 3 | 1012.3 |
| 20260505070603 | 10 | 319 | 3.2 | 9.7 | 0.00 | 0.05 | 0.00 | 3 | 1012.2 |
| 20260505070104 | 10 | 18 | 3.2 | 16.1 | 0.00 | 0.05 | 0.00 | 3 | 1012.1 |
| 20260505060603 | 10 | 324 | 3.2 | 8.0 | 0.00 | 0.05 | 0.00 | 3 | 1012.2 |
| 20260505060104 | 10 | 324 | 3.2 | 9.7 | 0.00 | 0.05 | 0.00 | 3 | 1012.0 |
| 20260505050603 | 10 | 332 | 3.2 | 4.8 | 0.00 | 0.05 | 0.00 | 3 | 1012.0 |
| 20260505050104 | 10 | 333 | 3.2 | 9.7 | 0.00 | 0.05 | 0.00 | 3 | 1011.9 |
| 20260505040603 | 10 | 26 | 0.0 | 1.6 | 0.00 | 0.05 | 0.00 | 3 | 1011.9 |
| 20260505040105 | 10 | 26 | 0.0 | 8.0 | 0.00 | 0.05 | 0.00 | 3 | 1012.0 |
| 20260505030603 | 10 | 44 | 1.6 | 4.8 | 0.00 | 0.05 | 0.00 | 3 | 1012.0 |
| 20260505030105 | 10 | 44 | 0.0 | 4.8 | 0.00 | 0.05 | 0.00 | 3 | 1012.0 |
| 20260505020104 | 10 | 69 | 1.6 | 4.8 | 0.00 | 0.05 | 0.00 | 3 | 1012.2 |
| 20260505000603 | 10 | 69 | 1.6 | 4.8 | 0.00 | 0.05 | 0.00 | 3 | 1012.9 |
| 20260505000105 | 10 | 69 | 1.6 | 8.0 | 0.00 | 0.05 | 0.00 | 3 | 1013.0 |
| 20260504230603 | 10 | 55 | 3.2 | 8.0 | 0.00 | 0.05 | 0.00 | 3 | 1013.8 |
| 20260504230105 | 10 | 55 | 0.0 | 8.0 | 0.00 | 0.05 | 0.00 | 3 | 1014.0 |
| 20260504220603 | 10 | 336 | 1.6 | 4.8 | 0.00 | 0.05 | 0.05 | 3 | 1014.5 |
| 20260504220105 | 10 | 336 | 1.6 | 4.8 | 0.00 | 0.05 | 0.05 | 3 | 1014.5 |